Location: *
(28.2408°N, 53.4600°E)
Time: 05:44:44
(UTC+00:00)

Cosmos 2056 Rocket - Pass Details

Date: 22 September 2019
Orbit: 742 x 800 km, 74.0° (Epoch: 18 October)

Event Time Altitude Azimuth Distance (km) Brightness Sun altitude
Rises 15:39:58 0° 206° (SSW) 3,287 7.0 -17.6°
Reaches altitude 10° 15:42:25 10° 211° (SSW) 2,363 6.3 -18.2°
Maximum altitude 15:47:39 52° 288° (WNW) 987 4.4 -19.3°
Drops below altitude 10° 15:52:55 10° 4° (N) 2,371 6.1 -20.4°
Sets 15:55:23 0° 9° (N) 3,299 6.8 -21.0°
